Windows 7 Forums
Welcome to Windows 7 Forums. Our forum is dedicated to helping you find support and solutions for any problems regarding your Windows 7 PC be it Dell, HP, Acer, Asus or a custom build. We also provide an extensive Windows 7 tutorial section that covers a wide range of tips and tricks.


Windows 7: MSI AB 1.4, GPU-Z & 5850, Voltage to 1.6. GPU-Z causing

19 Nov 2009   #1
ussj4brolli

Windows 7 PRO x64
 
 
MSI AB 1.4, GPU-Z & 5850, Voltage to 1.6. GPU-Z causing

This is what i posted on a different forum. Any ideas? The jucy parts on last quote..
http://forums.extremeoverclocking.co...70275&posted=1
http://forums.extremeoverclocking.co...d.php?t=331964

Quote:
Im recieving a voltage spike (and it stayed) on my Diamond 5850. In GPUZ 0.3.6, under VDDC its idling at 0.95, and the MAX has gone to 1.6x to 2.xx, so i uninstalled AMD GPU Tool, CATS, furmark, and msi afterburner.
When i opened MSI AB it showed the voltages MAXED out, too...
Note: Voltages were put back to stock on MSI AB, but it still showed it constantly staying at 1.6x and 2.xx

cleaned and reinstalled 9.11 WHQL, and tested with furmark, didnt spike as of yet....ANY ideas?
Quote:
Quote:
Originally Posted by jjjc_93
Someone else here had the same issue:
http://forums.extremeoverclocking.co...d.php?t=331385
Maybe that will help.

Thanks, MSI AB isnt even installed in the system anymore...so that out of question, unless someone can give me every reg MSI AB puts into the system and i can double check.

The system just dies a few min ago while on this forum...screen went while with black vertical lines all down it, very close together, striped. PC didnt shut off...but no screen anymore. And i was doing NOTHING, but this forum, GPU-Z, UTorrent, EVEREST, and MSE. The voltage was at the 1.6, and i had the fan at 50% using CCC.

Additional Comment:

installed MSI AB, wen i first opened program, the voltage bar was ALL THE WAY to the right, and said 1.649. tried to manually set voltage to stock, the bar says its stock, but gpu-z and MSI both say 1.65 still
I put fan to 100% to help the temps while on forum..



Additional Comment:

uninstalled 9.11`s, and cleaned using driver sweeper 2.0.5. the card auto-shuts down now after alittle while, and im just running from the default W7 drivers. Here is a gpu-z log..

How is diamonds RMA?! I think i still have time to newegg RMA...



And here:http://forums.overclockers.co.uk/sho...062457&page=13


Code:
Quote:
Date , GPU Core Clock [MHz] , GPU Memory Clock [MHz] , GPU Temperature [C] , Fan Speed [%] , GPU Load [%] , Fan Speed [RPM] , GPU Temp. #1 [C] , GPU Temp. #2 [C] , GPU Temp. #3 [C] , VDDC Current [A] , VDDC Phase #1 Temperature [C] , VDDC Phase #2 Temperature [C] , VDDC Phase #3 Temperature [C] , VDDC [V] ,
2009-11-18 05:01:13 , 157.0 , 300.0 , 31.0 , 50 , 2 , 3501 , 31.0 , 38.5 , 33.5 , 2.6 , 34.0 , 34.0 , 35.0 , 0.9500 ,
2009-11-18 05:01:14 , 157.0 , 300.0 , 31.0 , 50 , 0 , 3503 , 31.5 , 38.5 , 33.5 , 2.6 , 33.0 , 34.0 , 34.0 , 0.9500 ,
2009-11-18 05:01:15 , 157.0 , 300.0 , 31.0 , 50 , 1 , 3502 , 31.5 , 38.5 , 33.5 , 2.6 , 33.0 , 34.0 , 35.0 , 0.9500 ,
2009-11-18 05:01:16 , 157.0 , 300.0 , 31.0 , 50 , 0 , 3502 , 31.5 , 38.5 , 33.5 , 2.6 , 33.0 , 34.0 , 35.0 , 0.9500 ,
2009-11-18 05:01:17 , 157.0 , 300.0 , 31.0 , 50 , 0 , 3500 , 31.5 , 38.0 , 33.0 , 2.6 , 34.0 , 34.0 , 34.0 , 0.9500 ,
2009-11-18 05:01:18 , 157.0 , 300.0 , 31.0 , 50 , 0 , 3501 , 31.0 , 38.5 , 33.5 , 2.6 , 33.0 , 34.0 , 35.0 , 0.9500 ,
2009-11-18 05:01:19 , 157.0 , 300.0 , 31.0 , 50 , 2 , 3498 , 31.0 , 38.5 , 33.5 , 2.6 , 33.0 , 34.0 , 35.0 , 0.9500 ,
2009-11-18 05:01:20 , 157.0 , 300.0 , 31.0 , 50 , 0 , 3501 , 31.0 , 38.0 , 33.5 , 2.6 , 33.0 , 34.0 , 35.0 , 0.9500 ,
2009-11-18 05:01:21 , 157.0 , 300.0 , 31.0 , 50 , 0 , 3501 , 31.0 , 38.5 , 33.5 , 2.6 , 33.0 , 34.0 , 35.0 , 0.9500 ,
2009-11-18 05:01:22 , 157.0 , 300.0 , 31.0 , 50 , 0 , 3500 , 31.0 , 38.5 , 33.5 , 2.6 , 34.0 , 34.0 , 35.0 , 0.9500 ,
2009-11-18 05:01:23 , 157.0 , 300.0 , 31.0 , 50 , 0 , 3500 , 31.5 , 38.0 , 34.0 , 2.6 , 33.0 , 34.0 , 35.0 , 0.9500 ,
2009-11-18 05:01:24 , 157.0 , 300.0 , 31.0 , 50 , 2 , 3499 , 31.5 , 38.5 , 33.5 , 2.6 , 33.0 , 34.0 , 34.0 , 0.9500 ,
2009-11-18 05:01:25 , 157.0 , 300.0 , 31.0 , 50 , 0 , 3498 , 31.0 , 38.0 , 33.0 , 2.6 , 33.0 , 34.0 , 34.0 , 0.9500 ,
2009-11-18 05:01:26 , 157.0 , 300.0 , 31.0 , 50 , 1 , 3501 , 31.0 , 38.0 , 33.5 , 2.6 , 33.0 , 34.0 , 34.0 , 0.9500 ,
2009-11-18 05:01:27 , 157.0 , 300.0 , 31.0 , 50 , 4 , 3499 , 31.0 , 38.5 , 33.5 , 2.6 , 33.0 , 34.0 , 35.0 , 0.9500 ,
2009-11-18 05:01:28 , 157.0 , 300.0 , 30.0 , 50 , 0 , 3500 , 31.0 , 38.5 , 33.0 , 2.6 , 33.0 , 34.0 , 35.0 , 0.9500 ,
2009-11-18 05:01:29 , 157.0 , 300.0 , 31.0 , 50 , 0 , 3501 , 31.5 , 38.5 , 33.5 , 2.6 , 33.0 , 34.0 , 34.0 , 0.9500 ,
2009-11-18 05:01:30 , 157.0 , 300.0 , 31.0 , 50 , 0 , 3501 , 31.5 , 38.0 , 33.0 , 2.6 , 33.0 , 34.0 , 35.0 , 0.9500 ,
2009-11-18 05:01:31 , 157.0 , 300.0 , 30.0 , 50 , 5 , 3500 , 31.0 , 38.0 , 33.0 , 2.6 , 33.0 , 34.0 , 35.0 , 0.9500 ,
2009-11-18 05:01:32 , 157.0 , 300.0 , 31.0 , 50 , 20 , 3501 , 31.0 , 38.0 , 33.5 , 2.6 , 33.0 , 33.0 , 34.0 , 1.0375 ,
2009-11-18 05:01:33 , 157.0 , 300.0 , 31.0 , 50 , 8 , 3499 , 31.0 , 39.0 , 34.0 , 2.6 , 33.0 , 33.0 , 34.0 , 1.0375 ,
2009-11-18 05:01:34 , 157.0 , 300.0 , 31.0 , 50 , 0 , 3498 , 31.0 , 38.0 , 33.5 , 2.6 , 33.0 , 34.0 , 35.0 , - ,
2009-11-18 05:01:35 , 157.0 , 300.0 , 31.0 , 50 , 0 , 3502 , 30.5 , 38.0 , 33.5 , 2.6 , 33.0 , 34.0 , 34.0 , 0.9500 ,
2009-11-18 05:01:36 , 157.0 , 300.0 , 31.0 , 50 , 0 , 3500 , 31.0 , 38.0 , 33.0 , 2.6 , 33.0 , 34.0 , 34.0 , 0.9500 ,
2009-11-18 05:01:37 , 157.0 , 300.0 , 31.0 , 50 , 0 , 3498 , 31.0 , 38.5 , 33.5 , 2.6 , 33.0 , 33.0 , 34.0 , 0.9500 ,
2009-11-18 05:01:38 , 157.0 , 300.0 , 30.0 , 50 , 0 , 3499 , 31.0 , 38.0 , 33.5 , 2.6 , 33.0 , 34.0 , 35.0 , 0.9500 ,
2009-11-18 05:01:39 , 157.0 , 300.0 , 31.0 , 50 , 0 , 3500 , 30.5 , 38.0 , 33.0 , 2.6 , 33.0 , 34.0 , 35.0 , 0.9500 ,
2009-11-18 05:01:40 , 157.0 , 300.0 , 30.0 , 50 , 3 , 3500 , 30.5 , 38.0 , 33.0 , 2.6 , 33.0 , 34.0 , 34.0 , 0.9500 ,
2009-11-18 05:01:41 , 157.0 , 300.0 , 30.0 , 50 , 0 , 3501 , 31.0 , 38.0 , 33.0 , 2.6 , 33.0 , 34.0 , 34.0 , 0.9500 ,
2009-11-18 05:01:42 , 157.0 , 300.0 , 31.0 , 50 , 5 , 3501 , 31.0 , 38.5 , 33.5 , 2.6 , 33.0 , 34.0 , 34.0 , 0.9500 ,
2009-11-18 05:01:43 , 157.0 , 300.0 , 30.0 , 50 , 0 , 3503 , 30.5 , 38.0 , 33.0 , 2.6 , 33.0 , 34.0 , 34.0 , 0.9500 ,
2009-11-18 05:01:44 , 157.0 , 300.0 , 30.0 , 50 , 0 , 3501 , 31.0 , 38.0 , 33.5 , 2.6 , 33.0 , 33.0 , 34.0 , 0.9500 ,
2009-11-18 05:01:45 , 157.0 , 300.0 , 30.0 , 50 , 0 , 3501 , 30.5 , 38.0 , 33.5 , 2.6 , 33.0 , 34.0 , 34.0 , 0.9500 ,
2009-11-18 05:01:46 , 157.0 , 300.0 , 31.0 , 50 , 0 , 3499 , 31.0 , 38.0 , 33.0 , 2.6 , 33.0 , 34.0 , 34.0 , 0.9500 ,
2009-11-18 05:01:47 , 157.0 , 300.0 , 30.0 , 50 , 0 , 3500 , 31.0 , 38.0 , 33.0 , 2.6 , 33.0 , 34.0 , 34.0 , 0.9500 ,
2009-11-18 05:01:48 , 157.0 , 300.0 , 30.0 , 50 , 0 , 3501 , 31.0 , 37.5 , 33.0 , 2.6 , 33.0 , 34.0 , 34.0 , 0.9500 ,
2009-11-18 05:01:49 , 157.0 , 300.0 , 30.0 , 50 , 0 , 3503 , 31.0 , 37.5 , 33.0 , 2.6 , 33.0 , 34.0 , 34.0 , 0.9500 ,
2009-11-18 05:01:50 , 157.0 , 300.0 , 30.0 , 50 , 0 , 3500 , 31.0 , 38.0 , 33.5 , 2.6 , 33.0 , 33.0 , 34.0 , 0.9500 ,
2009-11-18 05:01:51 , 157.0 , 300.0 , 31.0 , 50 , 0 , 3499 , 30.5 , 38.0 , 33.5 , 2.6 , 33.0 , 33.0 , 34.0 , 0.9500 ,
2009-11-18 05:01:52 , 157.0 , 300.0 , 30.0 , 50 , 0 , 3501 , 30.5 , 38.5 , 33.0 , 2.6 , 33.0 , 33.0 , 34.0 , 0.9500 ,
2009-11-18 05:01:53 , 157.0 , 300.0 , 30.0 , 50 , 0 , 3500 , 30.5 , 38.0 , 33.0 , 2.6 , 33.0 , 34.0 , 34.0 , 0.9500 ,
2009-11-18 05:01:54 , 157.0 , 300.0 , 31.0 , 50 , 0 , 3502 , 31.0 , 37.5 , 33.0 , 2.6 , 33.0 , 34.0 , 34.0 , 0.9500 ,
2009-11-18 05:01:55 , 157.0 , 300.0 , 30.0 , 50 , 0 , 3501 , 30.5 , 38.0 , 33.0 , 2.6 , 33.0 , 33.0 , 34.0 , 0.9500 ,
2009-11-18 05:01:56 , 157.0 , 300.0 , 30.0 , 50 , 0 , 3500 , 31.0 , 37.5 , 33.0 , 2.6 , 33.0 , 33.0 , 34.0 , 0.9500 ,
2009-11-18 05:01:57 , 157.0 , 300.0 , 30.0 , 50 , 0 , 3500 , 31.0 , 37.5 , 33.0 , 2.6 , 33.0 , 34.0 , 34.0 , 0.9500 ,
2009-11-18 05:01:58 , 157.0 , 300.0 , 31.0 , 50 , 0 , 3499 , 30.5 , 38.5 , 32.5 , 2.6 , 33.0 , 34.0 , 34.0 , 0.9500 ,
2009-11-18 05:01:59 , 157.0 , 300.0 , 31.0 , 50 , 0 , 3502 , 30.5 , 38.0 , 33.0 , 2.6 , 33.0 , 34.0 , 34.0 , 0.9500 ,
2009-11-18 05:02:00 , 157.0 , 300.0 , 31.0 , 50 , 0 , 3503 , 30.5 , 37.5 , 33.0 , 2.6 , 33.0 , 34.0 , 34.0 , 0.9500 ,
2009-11-18 05:02:01 , 157.0 , 300.0 , 31.0 , 50 , 0 , 3501 , 31.5 , 38.0 , 33.0 , 2.6 , 33.0 , 33.0 , 34.0 , 0.9500 ,
2009-11-18 05:02:02 , 157.0 , 300.0 , 30.0 , 50 , 0 , 3500 , 31.0 , 37.5 , 33.0 , 2.6 , 33.0 , 33.0 , 34.0 , 0.9500 ,
2009-11-18 05:02:03 , 157.0 , 300.0 , 30.0 , 50 , 0 , 3500 , 30.5 , 38.0 , 33.5 , 2.6 , 33.0 , 34.0 , 34.0 , 0.9500 ,
2009-11-18 05:02:04 , 157.0 , 300.0 , 30.0 , 50 , 0 , 3500 , 30.5 , 38.0 , 33.0 , 2.6 , 33.0 , 34.0 , 34.0 , 0.9500 ,
2009-11-18 05:02:05 , 157.0 , 300.0 , 30.0 , 50 , 0 , 3502 , 30.5 , 38.0 , 32.5 , 2.6 , 33.0 , 34.0 , 34.0 , 0.9500 ,
2009-11-18 05:02:06 , 157.0 , 300.0 , 30.0 , 50 , 1 , 3503 , 30.5 , 38.0 , 33.0 , 2.6 , 33.0 , 33.0 , 34.0 , 0.9500 ,
2009-11-18 05:02:07 , 157.0 , 300.0 , 30.0 , 50 , 0 , 3502 , 30.5 , 37.5 , 33.0 , 1.7 , 33.0 , 33.0 , 34.0 , 1.0375 ,
2009-11-18 05:02:08 , 157.0 , 300.0 , 30.0 , 50 , 0 , 3500 , 30.5 , 37.5 , 33.0 , 2.6 , 33.0 , 34.0 , 33.0 , 1.0375 ,
2009-11-18 05:02:09 , 157.0 , 300.0 , 31.0 , 50 , 0 , 3502 , 30.5 , 38.0 , 33.0 , 2.6 , 33.0 , 34.0 , 34.0 , 0.9500 ,
2009-11-18 05:02:10 , 157.0 , 300.0 , 30.0 , 50 , 0 , 3501 , 30.5 , 38.0 , 33.0 , 2.6 , 33.0 , 34.0 , 34.0 , 0.9500 ,
2009-11-18 05:02:11 , 157.0 , 300.0 , 30.0 , 50 , 0 , 3501 , 30.5 , 38.0 , 33.0 , 2.6 , 33.0 , 34.0 , 34.0 , 0.9500 ,
2009-11-18 05:02:12 , 157.0 , 300.0 , 30.0 , 50 , 0 , 3500 , 30.5 , 38.0 , 33.0 , 2.6 , 33.0 , 34.0 , 34.0 , 0.9500 ,
2009-11-18 05:02:13 , 157.0 , 300.0 , 30.0 , 50 , 0 , 3503 , 30.5 , 37.5 , 33.0 , 2.6 , 33.0 , 34.0 , 34.0 , 0.9500 ,
2009-11-18 05:02:14 , 157.0 , 300.0 , 31.0 , 50 , 0 , 3502 , 31.0 , 38.0 , 33.0 , 2.6 , 33.0 , 34.0 , 34.0 , 0.9500 ,
2009-11-18 05:02:15 , 157.0 , 300.0 , 30.0 , 50 , 0 , 3500 , 30.5 , 37.5 , 33.0 , 2.6 , 33.0 , 34.0 , 34.0 , 0.9500 ,
2009-11-18 05:02:16 , 157.0 , 300.0 , 30.0 , 50 , 0 , 3501 , 30.5 , 38.0 , 32.5 , 2.6 , 33.0 , 34.0 , 34.0 , 0.9500 ,
2009-11-18 05:02:17 , 157.0 , 300.0 , 30.0 , 50 , 0 , 3499 , 30.5 , 37.5 , 33.5 , 2.6 , 33.0 , 33.0 , 34.0 , 0.9500 ,
2009-11-18 05:02:19 , 157.0 , 300.0 , 30.0 , 50 , 0 , 3501 , 30.5 , 38.0 , 33.5 , 2.6 , 33.0 , 33.0 , 34.0 , 0.9500 ,
2009-11-18 05:02:20 , 157.0 , 300.0 , 30.0 , 50 , 0 , 3500 , 30.5 , 38.0 , 33.0 , 2.6 , 33.0 , 34.0 , 34.0 , 0.9500 ,
2009-11-18 05:02:21 , 157.0 , 300.0 , 30.0 , 50 , 0 , 3498 , 30.5 , 37.5 , 33.0 , 2.6 , 33.0 , 34.0 , 34.0 , 0.9500 ,
2009-11-18 05:02:22 , 157.0 , 300.0 , 30.0 , 50 , 0 , 3500 , 30.5 , 38.0 , 33.0 , 2.6 , 33.0 , 33.0 , 34.0 , 0.9500 ,
2009-11-18 05:02:23 , 157.0 , 300.0 , 31.0 , 50 , 0 , 3502 , 30.5 , 37.5 , 33.0 , 2.6 , 33.0 , 33.0 , 34.0 , 0.9500 ,
2009-11-18 05:02:24 , 157.0 , 300.0 , 30.0 , 50 , 0 , 3500 , 30.5 , 37.5 , 33.0 , 2.6 , 33.0 , 34.0 , 34.0 , 0.9500 ,
2009-11-18 05:02:25 , 157.0 , 300.0 , 30.0 , 50 , 0 , 3499 , 30.5 , 37.5 , 33.0 , 2.6 , 33.0 , 34.0 , 34.0 , 0.9500 ,
2009-11-18 05:02:26 , 157.0 , 300.0 , 30.0 , 50 , 0 , 3500 , 30.5 , 37.5 , 32.5 , 2.6 , 33.0 , 34.0 , 34.0 , 0.9500 ,
2009-11-18 05:02:27 , 157.0 , 300.0 , 30.0 , 50 , 0 , 3499 , 30.5 , 37.5 , 32.5 , 1.7 , 33.0 , 34.0 , 34.0 , 0.9500 ,
2009-11-18 05:02:28 , 157.0 , 300.0 , 30.0 , 50 , 0 , 3501 , 30.5 , 37.5 , 33.0 , 2.6 , 32.0 , 34.0 , 34.0 , 0.9500 ,
2009-11-18 05:02:29 , 157.0 , 300.0 , 30.0 , 50 , 0 , 3504 , 30.5 , 37.5 , 32.5 , 2.6 , 33.0 , 34.0 , 34.0 , 0.9500 ,
2009-11-18 05:02:30 , 157.0 , 300.0 , 30.0 , 50 , 0 , 3501 , 30.5 , 37.5 , 32.5 , 2.6 , 33.0 , 34.0 , 34.0 , 0.9500 ,
2009-11-18 05:02:31 , 157.0 , 300.0 , 30.0 , 50 , 0 , 3502 , 31.0 , 37.5 , 33.0 , 2.6 , 33.0 , 33.0 , 34.0 , 0.9500 ,
2009-11-18 05:02:32 , 157.0 , 300.0 , 30.0 , 50 , 0 , 3500 , 30.5 , 38.0 , 33.0 , 2.6 , 33.0 , 34.0 , 34.0 , 0.9500 ,
2009-11-18 05:02:33 , 157.0 , 300.0 , 30.0 , 50 , 0 , 3502 , 30.5 , 38.0 , 33.0 , 2.6 , 33.0 , 34.0 , 34.0 , 0.9500 ,
2009-11-18 05:02:34 , 157.0 , 300.0 , 30.0 , 50 , 0 , 3500 , 30.5 , 38.0 , 33.0 , 2.6 , 33.0 , 33.0 , 34.0 , 0.9500 ,
2009-11-18 05:02:35 , 157.0 , 300.0 , 30.0 , 50 , 0 , 3502 , 30.5 , 38.0 , 32.5 , 1.7 , 33.0 , 34.0 , 34.0 , 0.9500 ,
2009-11-18 05:02:36 , 157.0 , 300.0 , 31.0 , 50 , 0 , 3501 , 30.5 , 37.5 , 33.0 , 1.7 , 33.0 , 33.0 , 34.0 , 0.9500 ,
2009-11-18 05:02:37 , 157.0 , 300.0 , 30.0 , 50 , 0 , 3502 , 30.5 , 38.0 , 32.5 , 1.7 , 32.0 , 34.0 , 34.0 , 0.9500 ,
2009-11-18 05:02:38 , 157.0 , 300.0 , 30.0 , 50 , 0 , 3503 , 30.5 , 38.0 , 32.5 , 1.7 , 32.0 , 34.0 , 34.0 , 0.9500 ,
2009-11-18 05:02:39 , 157.0 , 300.0 , 30.0 , 50 , 0 , 3501 , 30.5 , 37.5 , 32.5 , 1.7 , 32.0 , 34.0 , 34.0 , 0.9500 ,
2009-11-18 05:02:40 , 157.0 , 300.0 , 30.0 , 50 , 0 , 3502 , 30.5 , 37.5 , 33.0 , 1.7 , 33.0 , 34.0 , 34.0 , 0.9500 ,
2009-11-18 05:02:41 , 157.0 , 300.0 , 30.0 , 50 , 0 , 3500 , 30.5 , 38.0 , 33.0 , 2.6 , 33.0 , 34.0 , 34.0 , 0.9500 ,
2009-11-18 05:02:42 , 157.0 , 300.0 , 30.0 , 50 , 0 , 3501 , 30.5 , 37.5 , 33.0 , 1.7 , 33.0 , 34.0 , 34.0 , 0.9500 ,
2009-11-18 05:02:43 , 157.0 , 300.0 , 30.0 , 50 , 5 , 3501 , 30.5 , 37.5 , 33.0 , 2.6 , 33.0 , 34.0 , 33.0 , 1.0375 ,
2009-11-18 05:02:44 , 157.0 , 300.0 , 30.0 , 50 , 0 , 3501 , 30.5 , 37.5 , 33.0 , 2.6 , 32.0 , 34.0 , 33.0 , 1.0375 ,
2009-11-18 05:02:45 , 157.0 , 300.0 , 30.0 , 50 , 0 , 3500 , 30.5 , 37.5 , 32.5 , 1.7 , 33.0 , 34.0 , 34.0 , 0.9500 ,
2009-11-18 05:02:46 , 157.0 , 300.0 , 30.0 , 50 , 0 , 3501 , 30.5 , 38.0 , 33.0 , 1.7 , 33.0 , 33.0 , 34.0 , 0.9500 ,
2009-11-18 05:02:47 , 157.0 , 300.0 , 30.0 , 50 , 0 , 3500 , 30.5 , 37.5 , 33.0 , 1.7 , 32.0 , 33.0 , 34.0 , 0.9500 ,
2009-11-18 05:02:48 , 157.0 , 300.0 , 30.0 , 50 , 0 , 3501 , 30.5 , 37.5 , 33.0 , 1.7 , 32.0 , 33.0 , 34.0 , 0.9500 ,
2009-11-18 05:02:49 , 157.0 , 300.0 , 30.0 , 50 , 0 , 3501 , 30.5 , 37.5 , 32.5 , 1.7 , 32.0 , 34.0 , 34.0 , 0.9500 ,
2009-11-18 05:02:50 , 157.0 , 300.0 , 30.0 , 50 , 0 , 3501 , 30.5 , 38.0 , 33.0 , 1.7 , 32.0 , 34.0 , 34.0 , 0.9500 ,
2009-11-18 05:02:51 , 157.0 , 300.0 , 30.0 , 50 , 0 , 3502 , 30.5 , 37.5 , 33.0 , 1.7 , 32.0 , 33.0 , 34.0 , 0.9500 ,
2009-11-18 05:02:52 , 157.0 , 300.0 , 30.0 , 50 , 0 , 3501 , 30.5 , 37.5 , 32.5 , 1.7 , 32.0 , 33.0 , 34.0 , 0.9500 ,
2009-11-18 05:02:53 , 157.0 , 300.0 , 30.0 , 50 , 0 , 3500 , 30.5 , 38.0 , 33.0 , 1.7 , 32.0 , 34.0 , 34.0 , 0.9500 ,
2009-11-18 05:02:54 , 157.0 , 300.0 , 30.0 , 50 , 0 , 3501 , 30.5 , 37.5 , 33.0 , 1.7 , 32.0 , 33.0 , 34.0 , 0.9500 ,
2009-11-18 05:02:55 , 157.0 , 300.0 , 30.0 , 50 , 0 , 3500 , 30.5 , 38.0 , 33.0 , 1.7 , 32.0 , 34.0 , 34.0 , 0.9500 ,
2009-11-18 05:02:56 , 157.0 , 300.0 , 30.0 , 50 , 0 , 3502 , 30.5 , 37.5 , 33.0 , 1.7 , 32.0 , 33.0 , 34.0 , 0.9500 ,
2009-11-18 05:02:57 , 157.0 , 300.0 , 30.0 , 50 , 0 , 3503 , 30.5 , 37.5 , 32.5 , 1.7 , 33.0 , 34.0 , 34.0 , 0.9500 ,
2009-11-18 05:02:58 , 157.0 , 300.0 , 30.0 , 50 , 0 , 3501 , 30.5 , 37.5 , 32.5 , 1.7 , 33.0 , 33.0 , 34.0 , 0.9500 ,
2009-11-18 05:02:59 , 157.0 , 300.0 , 30.0 , 50 , 0 , 3501 , 30.5 , 38.0 , 33.0 , 1.7 , 32.0 , 33.0 , 34.0 , 0.9500 ,
2009-11-18 05:03:00 , 157.0 , 300.0 , 30.0 , 50 , 0 , 3500 , 30.5 , 37.5 , 33.0 , 1.7 , 32.0 , 33.0 , 34.0 , 0.9500 ,
2009-11-18 05:03:01 , 157.0 , 300.0 , 30.0 , 50 , 0 , 3500 , 30.5 , 37.5 , 32.5 , 1.7 , 32.0 , 34.0 , 34.0 , 0.9500 ,
2009-11-18 05:03:02 , 157.0 , 300.0 , 30.0 , 50 , 0 , 3502 , 30.5 , 37.5 , 32.5 , 2.6 , 32.0 , 33.0 , 34.0 , 0.9500 ,
2009-11-18 05:03:03 , 157.0 , 300.0 , 30.0 , 50 , 0 , 3500 , 30.5 , 37.5 , 32.5 , 1.7 , 32.0 , 34.0 , 34.0 , 0.9500 ,
2009-11-18 05:03:04 , 157.0 , 300.0 , 30.0 , 50 , 0 , 3501 , 30.5 , 37.5 , 33.0 , 1.7 , 32.0 , 33.0 , 34.0 , 0.9500 ,
2009-11-18 05:03:05 , 157.0 , 300.0 , 30.0 , 50 , 1 , 3502 , 30.5 , 38.0 , 33.0 , 2.6 , 32.0 , 33.0 , 34.0 , 0.9500 ,
2009-11-18 05:03:06 , 157.0 , 300.0 , 30.0 , 50 , 0 , 3502 , 30.5 , 38.0 , 32.5 , 1.7 , 32.0 , 33.0 , 33.0 , 0.9500 ,
2009-11-18 05:03:07 , 157.0 , 300.0 , 30.0 , 50 , 0 , 3501 , 30.5 , 38.5 , 33.0 , 1.7 , 32.0 , 33.0 , 34.0 , 0.9500 ,
2009-11-18 05:03:08 , 157.0 , 300.0 , 30.0 , 50 , 0 , 3499 , 30.5 , 37.5 , 33.0 , 1.7 , 32.0 , 33.0 , 34.0 , 0.9500 ,
2009-11-18 05:03:09 , 157.0 , 300.0 , 30.0 , 50 , 0 , 3499 , 30.5 , 37.5 , 33.0 , 1.7 , 33.0 , 33.0 , 34.0 , 0.9500 ,
2009-11-18 05:03:10 , 157.0 , 300.0 , 30.0 , 50 , 0 , 3502 , 30.5 , 38.0 , 32.5 , 1.7 , 33.0 , 34.0 , 34.0 , 0.9500 ,
2009-11-18 05:03:11 , 157.0 , 300.0 , 30.0 , 50 , 4 , 3502 , 30.5 , 37.5 , 33.0 , 2.6 , 32.0 , 34.0 , 33.0 , 0.9500 ,
2009-11-18 05:03:12 , 157.0 , 300.0 , 30.0 , 50 , 0 , 3500 , 30.5 , 37.5 , 32.5 , 2.6 , 32.0 , 33.0 , 34.0 , 0.9500 ,
2009-11-18 05:03:13 , 157.0 , 300.0 , 30.0 , 50 , 0 , 3502 , 30.5 , 37.5 , 32.5 , 1.7 , 32.0 , 33.0 , 34.0 , 0.9500 ,
2009-11-18 05:03:14 , 157.0 , 300.0 , 30.0 , 50 , 0 , 3500 , 30.5 , 37.5 , 33.0 , 1.7 , 33.0 , 33.0 , 34.0 , 0.9500 ,
2009-11-18 05:03:15 , 157.0 , 300.0 , 30.0 , 50 , 0 , 3501 , 30.5 , 37.5 , 33.0 , 1.7 , 32.0 , 33.0 , 34.0 , 0.9500 ,
2009-11-18 05:03:16 , 157.0 , 300.0 , 30.0 , 50 , 0 , 3502 , 30.5 , 37.5 , 32.5 , 1.7 , 32.0 , 33.0 , 34.0 , 0.9500 ,
2009-11-18 05:03:17 , 157.0 , 300.0 , 30.0 , 50 , 0 , 3500 , 30.0 , 37.5 , 33.0 , 2.6 , 32.0 , 33.0 , 34.0 , 0.9500 ,
2009-11-18 05:03:18 , 157.0 , 300.0 , 30.0 , 50 , 0 , 3501 , 30.5 , 37.5 , 33.0 , 2.6 , 33.0 , 33.0 , 34.0 , 0.9500 ,
2009-11-18 05:03:19 , 157.0 , 300.0 , 30.0 , 50 , 5 , 3502 , 30.0 , 37.5 , 33.0 , 2.6 , 32.0 , 33.0 , 34.0 , 0.9500 ,
2009-11-18 05:03:20 , 157.0 , 300.0 , 30.0 , 50 , 0 , 3500 , 30.5 , 37.5 , 33.0 , 1.7 , 32.0 , 33.0 , 34.0 , 0.9500 ,
2009-11-18 05:03:21 , 157.0 , 300.0 , 30.0 , 50 , 0 , 3501 , 30.5 , 38.0 , 33.0 , 1.7 , 33.0 , 33.0 , 34.0 , 1.0375 ,
2009-11-18 05:03:22 , 157.0 , 300.0 , 30.0 , 50 , 0 , 3501 , 30.5 , 38.0 , 33.0 , 1.7 , 32.0 , 33.0 , 33.0 , 1.0375 ,
2009-11-18 05:03:23 , 157.0 , 300.0 , 30.0 , 50 , 0 , 3500 , 30.5 , 37.5 , 32.5 , 2.6 , 32.0 , 33.0 , 33.0 , 0.9500 ,
2009-11-18 05:03:24 , 157.0 , 300.0 , 30.0 , 50 , 0 , 3500 , 30.5 , 38.0 , 32.5 , 1.7 , 32.0 , 33.0 , 33.0 , 0.9500 ,
2009-11-18 05:03:25 , 157.0 , 300.0 , 30.0 , 50 , 0 , 3502 , 30.5 , 37.5 , 33.0 , 1.7 , 33.0 , 33.0 , 34.0 , 0.9500 ,
2009-11-18 05:03:26 , 157.0 , 300.0 , 30.0 , 50 , 0 , 3500 , 30.5 , 37.5 , 33.0 , 1.7 , 33.0 , 33.0 , 33.0 , 0.9500 ,
2009-11-18 05:03:27 , 157.0 , 300.0 , 30.0 , 50 , 0 , 3502 , 30.5 , 37.5 , 33.0 , 1.7 , 33.0 , 33.0 , 34.0 , 0.9500 ,
2009-11-18 05:03:28 , 157.0 , 300.0 , 30.0 , 50 , 0 , 3501 , 30.5 , 37.5 , 32.5 , 1.7 , 32.0 , 33.0 , 34.0 , 0.9500 ,
2009-11-18 05:03:29 , 157.0 , 300.0 , 30.0 , 50 , 0 , 3500 , 30.5 , 37.0 , 32.5 , 1.7 , 32.0 , 33.0 , 33.0 , 0.9500 ,
2009-11-18 05:03:31 , 157.0 , 300.0 , 30.0 , 50 , 0 , 3502 , 30.5 , 37.5 , 33.0 , 1.7 , 33.0 , 33.0 , 34.0 , 0.9500 ,
2009-11-18 05:03:32 , 157.0 , 300.0 , 30.0 , 50 , 0 , 3501 , 30.5 , 37.5 , 33.0 , 1.7 , 32.0 , 33.0 , 33.0 , 0.9500 ,
2009-11-18 05:03:33 , 157.0 , 300.0 , 30.0 , 50 , 0 , 3500 , 30.5 , 37.5 , 33.0 , 1.7 , 33.0 , 33.0 , 34.0 , 0.9500 ,
2009-11-18 05:03:34 , 157.0 , 300.0 , 30.0 , 50 , 0 , 3501 , 30.5 , 38.0 , 33.0 , 1.7 , 32.0 , 33.0 , 33.0 , 0.9500 ,
2009-11-18 05:03:35 , 157.0 , 300.0 , 30.0 , 50 , 0 , 3499 , 30.0 , 37.5 , 33.0 , 1.7 , 32.0 , 33.0 , 34.0 , 0.9500 ,
2009-11-18 05:03:36 , 157.0 , 300.0 , 30.0 , 50 , 0 , 3502 , 30.5 , 37.5 , 32.5 , 1.7 , 32.0 , 33.0 , 34.0 , 0.9500 ,
2009-11-18 05:03:37 , 157.0 , 300.0 , 30.0 , 50 , 0 , 3502 , 30.5 , 37.0 , 33.0 , 1.7 , 32.0 , 33.0 , 34.0 , 0.9500 ,
2009-11-18 05:03:38 , 157.0 , 300.0 , 30.0 , 50 , 0 , 3502 , 30.5 , 37.5 , 33.0 , 1.7 , 32.0 , 33.0 , 34.0 , 0.9500 ,
2009-11-18 05:03:39 , 157.0 , 300.0 , 30.0 , 50 , 0 , 3501 , 30.5 , 38.0 , 32.5 , 1.7 , 32.0 , 33.0 , 34.0 , 0.9500 ,
2009-11-18 05:03:40 , 157.0 , 300.0 , 31.0 , 50 , 0 , 3500 , 30.0 , 37.5 , 32.5 , 1.7 , 33.0 , 33.0 , 33.0 , 0.9500 ,
2009-11-18 05:03:41 , 157.0 , 300.0 , 30.0 , 50 , 0 , 3501 , 30.5 , 37.0 , 33.0 , 1.7 , 32.0 , 33.0 , 33.0 , 0.9500 ,
2009-11-18 05:03:42 , 157.0 , 300.0 , 30.0 , 50 , 0 , 3500 , 30.5 , 37.5 , 32.5 , 2.6 , 33.0 , 33.0 , 33.0 , 0.9500 ,
2009-11-18 05:03:43 , 157.0 , 300.0 , 30.0 , 50 , 0 , 3501 , 30.5 , 37.0 , 33.0 , 1.7 , 32.0 , 33.0 , 34.0 , 0.9500 ,
2009-11-18 05:03:44 , 157.0 , 300.0 , 30.0 , 50 , 0 , 3503 , 30.5 , 38.0 , 32.5 , 1.7 , 32.0 , 33.0 , 33.0 , 0.9500 ,
2009-11-18 05:03:45 , 157.0 , 300.0 , 30.0 , 50 , 0 , 3503 , 30.5 , 38.0 , 32.5 , 1.7 , 32.0 , 33.0 , 34.0 , 0.9500 ,
2009-11-18 05:03:46 , 157.0 , 300.0 , 30.0 , 50 , 0 , 3503 , 30.0 , 37.0 , 33.0 , 1.7 , 32.0 , 33.0 , 33.0 , 0.9500 ,
2009-11-18 05:03:47 , 157.0 , 300.0 , 30.0 , 50 , 0 , 3501 , 30.5 , 37.5 , 33.0 , 1.7 , 33.0 , 33.0 , 34.0 , 0.9500 ,
2009-11-18 05:03:48 , 157.0 , 300.0 , 30.0 , 50 , 0 , 3502 , 30.5 , 37.5 , 33.0 , 1.7 , 33.0 , 33.0 , 34.0 , 0.9500 ,
2009-11-18 05:03:49 , 157.0 , 300.0 , 30.0 , 50 , 0 , 3501 , 30.5 , 37.5 , 33.0 , 1.7 , 33.0 , 33.0 , 34.0 , 0.9500 ,
2009-11-18 05:03:50 , 157.0 , 300.0 , 30.0 , 50 , 0 , 3501 , 30.5 , 37.5 , 33.0 , 1.7 , 32.0 , 33.0 , 34.0 , 0.9500 ,
2009-11-18 05:03:51 , 157.0 , 300.0 , 30.0 , 50 , 0 , 3500 , 30.5 , 37.5 , 32.5 , 1.7 , 32.0 , 33.0 , 34.0 , 0.9500 ,
2009-11-18 05:03:52 , 157.0 , 300.0 , 30.0 , 50 , 0 , 3502 , 30.0 , 37.5 , 33.5 , 1.7 , 32.0 , 33.0 , 34.0 , 0.9500 ,
2009-11-18 05:03:53 , 157.0 , 300.0 , 30.0 , 50 , 0 , 3500 , 30.5 , 37.5 , 32.5 , 1.7 , 32.0 , 33.0 , 33.0 , 0.9500 ,
2009-11-18 05:03:54 , 157.0 , 300.0 , 30.0 , 50 , 0 , 3501 , 30.5 , 37.5 , 32.5 , 1.7 , 32.0 , 33.0 , 33.0 , 0.9500 ,
2009-11-18 05:03:55 , 157.0 , 300.0 , 30.0 , 50 , 0 , 3500 , 30.5 , 37.5 , 33.0 , 1.7 , 33.0 , 33.0 , 33.0 , 0.9500 ,
2009-11-18 05:03:56 , 157.0 , 300.0 , 30.0 , 50 , 0 , 3502 , 30.5 , 38.0 , 32.5 , 1.7 , 33.0 , 33.0 , 33.0 , 0.9500 ,
2009-11-18 05:03:57 , 157.0 , 300.0 , 30.0 , 50 , 0 , 3502 , 30.5 , 37.0 , 32.5 , 1.7 , 32.0 , 33.0 , 34.0 , 0.9500 ,
2009-11-18 05:03:58 , 157.0 , 300.0 , 30.0 , 50 , 4 , 3501 , 30.5 , 37.5 , 33.0 , 2.6 , 32.0 , 33.0 , 33.0 , 0.9500 ,
2009-11-18 05:03:59 , 157.0 , 300.0 , 30.0 , 50 , 2 , 3500 , 30.5 , 37.5 , 32.5 , 1.7 , 32.0 , 33.0 , 33.0 , 0.9500 ,
2009-11-18 05:04:00 , 157.0 , 300.0 , 30.0 , 50 , 0 , 3501 , 30.5 , 37.5 , 32.5 , 1.7 , 33.0 , 33.0 , 33.0 , 1.0375 ,
2009-11-18 05:04:01 , 157.0 , 300.0 , 30.0 , 50 , 0 , 3500 , 30.0 , 37.5 , 33.0 , 1.7 , 32.0 , 32.0 , 33.0 , 1.0375 ,
2009-11-18 05:04:02 , 157.0 , 300.0 , 30.0 , 50 , 0 , 3501 , 29.5 , 37.5 , 32.5 , 1.7 , 32.0 , 33.0 , 33.0 , - ,
2009-11-18 05:04:03 , 157.0 , 300.0 , 33.0 , 50 , 0 , 3480 , 33.5 , 40.0 , 34.5 , 22.6 , 34.0 , 35.0 , 35.0 , 1.6500 ,
2009-11-18 05:04:04 , 157.0 , 300.0 , 33.0 , 50 , 0 , 3482 , 34.0 , 40.5 , 35.0 , 22.6 , 34.0 , 35.0 , 35.0 , 1.6500 ,
2009-11-18 05:04:05 , 157.0 , 300.0 , 34.0 , 50 , 0 , 3481 , 34.5 , 40.5 , 35.5 , 22.6 , 34.0 , 35.0 , 36.0 , 1.6500 ,
2009-11-18 05:04:06 , 157.0 , 300.0 , 34.0 , 50 , 0 , 3482 , 34.0 , 40.5 , 35.5 , 22.6 , 35.0 , 36.0 , 36.0 , 1.6500 ,
2009-11-18 05:04:07 , 157.0 , 300.0 , 34.0 , 50 , 4 , 3480 , 34.5 , 41.5 , 36.5 , 22.6 , 35.0 , 36.0 , 36.0 , 1.6500 ,
2009-11-18 05:04:08 , 157.0 , 300.0 , 34.0 , 50 , 0 , 3480 , 34.5 , 41.5 , 36.5 , 22.6 , 34.0 , 36.0 , 36.0 , 1.6500 ,
2009-11-18 05:04:09 , 157.0 , 300.0 , 34.0 , 50 , 0 , 3481 , 34.5 , 42.0 , 36.5 , 22.6 , 35.0 , 36.0 , 36.0 , 1.6500 ,
2009-11-18 05:04:10 , 157.0 , 300.0 , 34.0 , 50 , 0 , 3479 , 35.5 , 42.0 , 36.5 , 22.6 , 35.0 , 36.0 , 37.0 , 1.6500 ,
2009-11-18 05:04:11 , 157.0 , 300.0 , 35.0 , 50 , 0 , 3481 , 35.5 , 41.5 , 37.0 , 22.6 , 35.0 , 36.0 , 36.0 , 1.6500 ,
2009-11-18 05:04:12 , 157.0 , 300.0 , 35.0 , 50 , 5 , 3481 , 35.5 , 42.5 , 37.0 , 22.6 , 35.0 , 36.0 , 37.0 , 1.6500 ,
2009-11-18 05:04:13 , 157.0 , 300.0 , 35.0 , 50 , 0 , 3483 , 35.5 , 42.5 , 37.0 , 22.6 , 35.0 , 36.0 , 37.0 , 1.6500 ,
2009-11-18 05:04:14 , 157.0 , 300.0 , 36.0 , 50 , 0 , 3481 , 36.0 , 42.5 , 37.5 , 22.6 , 35.0 , 36.0 , 37.0 , 1.6500 ,
2009-11-18 05:04:15 , 157.0 , 300.0 , 36.0 , 50 , 0 , 3483 , 36.0 , 42.5 , 37.5 , 22.6 , 35.0 , 37.0 , 37.0 , 1.6500 ,
2009-11-18 05:04:16 , 157.0 , 300.0 , 36.0 , 50 , 0 , 3481 , 36.5 , 42.5 , 37.5 , 22.6 , 35.0 , 37.0 , 37.0 , 1.6500 ,
2009-11-18 05:04:17 , 157.0 , 300.0 , 36.0 , 50 , 0 , 3484 , 36.0 , 42.5 , 38.0 , 22.6 , 35.0 , 37.0 , 37.0 , 1.6500 ,
2009-11-18 05:04:18 , 157.0 , 300.0 , 37.0 , 50 , 0 , 3482 , 36.5 , 43.0 , 37.5 , 22.6 , 35.0 , 36.0 , 37.0 , 1.6500 ,
2009-11-18 05:04:19 , 157.0 , 300.0 , 37.0 , 50 , 0 , 3482 , 36.5 , 42.5 , 38.0 , 22.6 , 36.0 , 37.0 , 37.0 , 1.6500 ,
2009-11-18 05:04:20 , 157.0 , 300.0 , 36.0 , 50 , 0 , 3482 , 36.5 , 43.5 , 38.0 , 22.6 , 36.0 , 37.0 , 37.0 , 1.6500 ,
2009-11-18 05:04:21 , 157.0 , 300.0 , 37.0 , 50 , 0 , 3483 , 37.0 , 43.5 , 38.0 , 22.6 , 36.0 , 37.0 , 37.0 , 1.6500 ,
2009-11-18 05:04:22 , 157.0 , 300.0 , 37.0 , 50 , 0 , 3485 , 37.0 , 43.0 , 38.0 , 22.6 , 35.0 , 37.0 , 37.0 , 1.6500 ,
2009-11-18 05:04:23 , 157.0 , 300.0 , 37.0 , 50 , 0 , 3483 , 37.0 , 44.0 , 38.5 , 22.6 , 36.0 , 37.0 , 37.0 , 1.6500 ,
2009-11-18 05:04:24 , 157.0 , 300.0 , 38.0 , 50 , 0 , 3481 , 37.5 , 43.5 , 38.0 , 22.6 , 36.0 , 37.0 , 37.0 , 1.6500 ,
2009-11-18 05:04:25 , 157.0 , 300.0 , 37.0 , 50 , 0 , 3484 , 37.5 , 44.0 , 38.5 , 22.6 , 36.0 , 37.0 , 37.0 , 1.6500 ,
2009-11-18 05:04:26 , 157.0 , 300.0 , 37.0 , 50 , 0 , 3483 , 37.5 , 44.5 , 38.5 , 22.6 , 36.0 , 37.0 , 37.0 , 1.6500 ,
2009-11-18 05:04:27 , 157.0 , 300.0 , 38.0 , 50 , 0 , 3484 , 38.0 , 44.0 , 39.0 , 22.6 , 36.0 , 37.0 , 37.0 , 1.6500 ,
2009-11-18 05:04:28 , 157.0 , 300.0 , 38.0 , 50 , 4 , 3483 , 37.5 , 44.5 , 39.5 , 22.6 , 36.0 , 37.0 , 37.0 , 1.6500 ,
2009-11-18 05:04:29 , 157.0 , 300.0 , 38.0 , 50 , 1 , 3484 , 38.5 , 44.5 , 39.5 , 22.6 , 36.0 , 37.0 , 37.0 , 1.6500 ,
2009-11-18 05:04:30 , 157.0 , 300.0 , 38.0 , 50 , 0 , 3482 , 38.5 , 44.5 , 39.5 , 22.6 , 36.0 , 37.0 , 37.0 , 1.6500 ,
2009-11-18 05:04:31 , 157.0 , 300.0 , 38.0 , 50 , 0 , 3482 , 38.5 , 44.5 , 39.5 , 22.6 , 36.0 , 37.0 , 37.0 , 1.6500 ,
2009-11-18 05:04:32 , 157.0 , 300.0 , 38.0 , 50 , 0 , 3484 , 38.5 , 44.5 , 39.0 , 22.6 , 36.0 , 38.0 , 37.0 , 1.6500 ,
2009-11-18 05:04:33 , 157.0 , 300.0 , 38.0 , 50 , 0 , 3482 , 39.0 , 44.5 , 39.5 , 22.6 , 36.0 , 38.0 , 38.0 , 1.6500 ,
2009-11-18 05:04:34 , 157.0 , 300.0 , 38.0 , 50 , 0 , 3485 , 38.5 , 44.5 , 40.0 , 22.6 , 36.0 , 38.0 , 37.0 , 1.6500 ,
2009-11-18 05:04:35 , 157.0 , 300.0 , 38.0 , 50 , 0 , 3485 , 38.5 , 45.0 , 39.5 , 22.6 , 36.0 , 38.0 , 37.0 , 1.6500 ,
2009-11-18 05:04:36 , 157.0 , 300.0 , 38.0 , 50 , 0 , 3486 , 39.0 , 45.5 , 39.5 , 22.6 , 36.0 , 38.0 , 37.0 , 1.6500 ,
2009-11-18 05:04:37 , 157.0 , 300.0 , 39.0 , 50 , 0 , 3485 , 38.5 , 45.5 , 40.0 , 22.6 , 36.0 , 38.0 , 37.0 , 1.0375 ,
2009-11-18 05:04:38 , 157.0 , 300.0 , 39.0 , 50 , 0 , 3484 , 39.0 , 45.0 , 40.0 , 22.6 , 36.0 , 38.0 , 36.0 , 1.0375 ,
2009-11-18 05:04:39 , 157.0 , 300.0 , 39.0 , 50 , 0 , 3485 , 39.5 , 46.0 , 40.5 , 22.6 , 37.0 , 38.0 , 37.0 , 1.6500 ,
2009-11-18 05:04:40 , 157.0 , 300.0 , 39.0 , 50 , 0 , 3484 , 39.0 , 45.0 , 40.5 , 22.6 , 37.0 , 38.0 , 38.0 , 1.6500 ,
2009-11-18 05:04:41 , 157.0 , 300.0 , 39.0 , 50 , 0 , 3484 , 38.5 , 45.5 , 40.0 , 22.6 , 37.0 , 38.0 , 38.0 , 1.6500 ,
2009-11-18 05:04:42 , 157.0 , 300.0 , 39.0 , 50 , 0 , 3487 , 39.5 , 45.5 , 40.0 , 22.6 , 37.0 , 38.0 , 38.0 , 1.6500 ,
2009-11-18 05:04:44 , 157.0 , 300.0 , 40.0 , 50 , 0 , 3483 , 40.0 , 45.5 , 40.5 , 22.6 , 37.0 , 38.0 , 38.0 , 1.6500 ,
2009-11-18 05:04:45 , 157.0 , 300.0 , 39.0 , 50 , 0 , 3483 , 39.5 , 45.5 , 40.5 , 22.6 , 37.0 , 38.0 , 38.0 , 1.6500 ,
2009-11-18 05:04:46 , 157.0 , 300.0 , 39.0 , 50 , 0 , 3485 , 39.5 , 46.0 , 40.5 , 22.6 , 37.0 , 38.0 , 38.0 , 1.6500 ,
2009-11-18 05:04:47 , 157.0 , 300.0 , 39.0 , 50 , 5 , 3483 , 40.0 , 46.0 , 40.5 , 22.6 , 37.0 , 38.0 , 38.0 , 1.6500 ,
2009-11-18 05:04:48 , 157.0 , 300.0 , 39.0 , 50 , 3 , 3485 , 40.0 , 45.5 , 40.5 , 22.6 , 37.0 , 38.0 , 38.0 , 1.6500 ,
2009-11-18 05:04:49 , 157.0 , 300.0 , 40.0 , 50 , 3 , 3485 , 40.5 , 46.0 , 40.5 , 22.6 , 37.0 , 38.0 , 38.0 , 1.6500 ,
2009-11-18 05:04:50 , 157.0 , 300.0 , 39.0 , 50 , 0 , 3484 , 40.0 , 46.0 , 41.0 , 22.6 , 37.0 , 38.0 , 38.0 , 1.6500 ,
2009-11-18 05:04:51 , 157.0 , 300.0 , 40.0 , 50 , 8 , 3486 , 40.0 , 46.5 , 40.5 , 22.6 , 37.0 , 38.0 , 38.0 , 1.6500 ,
2009-11-18 05:04:52 , 157.0 , 300.0 , 40.0 , 50 , 0 , 3485 , 40.5 , 46.5 , 40.5 , 22.6 , 37.0 , 38.0 , 38.0 , 1.6500 ,
2009-11-18 05:04:53 , 157.0 , 300.0 , 40.0 , 50 , 7 , 3486 , 40.5 , 46.0 , 41.0 , 22.6 , 37.0 , 38.0 , 38.0 , 1.6500 ,
2009-11-18 05:04:54 , 157.0 , 300.0 , 40.0 , 50 , 0 , 3484 , 40.5 , 46.5 , 40.5 , 22.6 , 37.0 , 38.0 , 38.0 , 1.6500 ,
2009-11-18 05:04:55 , 157.0 , 300.0 , 40.0 , 50 , 0 , 3484 , 40.5 , 46.5 , 41.0 , 22.6 , 37.0 , 38.0 , 38.0 , 1.6500 ,
2009-11-18 05:04:56 , 157.0 , 300.0 , 40.0 , 50 , 0 , 3485 , 40.0 , 46.5 , 41.0 , 22.6 , 37.0 , 38.0 , 38.0 , 1.6500 ,
2009-11-18 05:04:57 , 157.0 , 300.0 , 40.0 , 50 , 2 , 3485 , 40.5 , 46.5 , 41.0 , 22.6 , 37.0 , 38.0 , 38.0 , 1.6500 ,
2009-11-18 05:04:58 , 157.0 , 300.0 , 40.0 , 50 , 0 , 3483 , 40.0 , 46.5 , 41.0 , 22.6 , 37.0 , 38.0 , 38.0 , 1.6500 ,
2009-11-18 05:04:59 , 157.0 , 300.0 , 40.0 , 50 , 0 , 3485 , 41.0 , 46.5 , 41.5 , 22.6 , 37.0 , 38.0 , 38.0 , 1.6500 ,
2009-11-18 05:05:00 , 157.0 , 300.0 , 40.0 , 50 , 0 , 3485 , 40.5 , 46.5 , 41.5 , 22.6 , 37.0 , 38.0 , 38.0 , 1.6500 ,
2009-11-18 05:05:01 , 157.0 , 300.0 , 40.0 , 50 , 0 , 3485 , 40.5 , 46.5 , 41.5 , 22.6 , 37.0 , 38.0 , 38.0 , 1.6500 ,
2009-11-18 05:05:02 , 157.0 , 300.0 , 40.0 , 50 , 0 , 3485 , 40.5 , 46.5 , 41.5 , 22.6 , 37.0 , 38.0 , 38.0 , 1.6500 ,
2009-11-18 05:05:03 , 157.0 , 300.0 , 41.0 , 50 , 0 , 3485 , 41.0 , 47.0 , 41.0 , 22.6 , 37.0 , 38.0 , 38.0 , 1.6500 ,
2009-11-18 05:05:04 , 157.0 , 300.0 , 40.0 , 50 , 0 , 3487 , 41.0 , 46.5 , 41.5 , 22.6 , 37.0 , 38.0 , 38.0 , 1.6500 ,
2009-11-18 05:05:05 , 157.0 , 300.0 , 40.0 , 50 , 0 , 3485 , 41.0 , 46.5 , 41.5 , 22.6 , 37.0 , 38.0 , 38.0 , 1.6500 ,
2009-11-18 05:05:06 , 157.0 , 300.0 , 41.0 , 50 , 0 , 3482 , 41.0 , 47.0 , 41.5 , 22.6 , 37.0 , 38.0 , 38.0 , 1.6500 ,
2009-11-18 05:05:07 , 157.0 , 300.0 , 40.0 , 50 , 4 , 3484 , 41.0 , 46.5 , 42.0 , 22.6 , 37.0 , 38.0 , 38.0 , 1.6500 ,
2009-11-18 05:05:08 , 157.0 , 300.0 , 41.0 , 50 , 0 , 3486 , 41.0 , 47.0 , 42.0 , 22.6 , 37.0 , 38.0 , 38.0 , 1.6500 ,
2009-11-18 05:05:09 , 157.0 , 300.0 , 41.0 , 50 , 0 , 3487 , 41.5 , 47.0 , 41.5 , 22.6 , 37.0 , 38.0 , 38.0 , 1.6500 ,
2009-11-18 05:05:10 , 157.0 , 300.0 , 41.0 , 50 , 0 , 3486 , 41.0 , 47.5 , 41.5 , 22.6 , 37.0 , 38.0 , 39.0 , 1.6500 ,
2009-11-18 05:05:11 , 157.0 , 300.0 , 41.0 , 50 , 0 , 3486 , 41.5 , 47.5 , 41.5 , 22.6 , 37.0 , 38.0 , 39.0 , 1.6500 ,
2009-11-18 05:05:12 , 157.0 , 300.0 , 41.0 , 50 , 0 , 3489 , 41.0 , 47.0 , 42.0 , 22.6 , 37.0 , 38.0 , 38.0 , 1.6500 ,
2009-11-18 05:05:13 , 157.0 , 300.0 , 41.0 , 50 , 2 , 3485 , 41.0 , 47.0 , 42.0 , 22.6 , 37.0 , 38.0 , 38.0 , 1.6500 ,
2009-11-18 05:05:14 , 157.0 , 300.0 , 41.0 , 50 , 8 , 3485 , 41.5 , 47.5 , 41.5 , 0.0 , 38.0 , 38.0 , 39.0 , 1.6500 ,
2009-11-18 05:05:15 , 157.0 , 300.0 , 41.0 , 50 , 0 , 3488 , 42.0 , 47.5 , 41.5 , 22.6 , 37.0 , 38.0 , 37.0 , 1.0375 ,
2009-11-18 05:05:16 , 157.0 , 300.0 , 41.0 , 50 , 14 , 3486 , 42.0 , 47.5 , 42.0 , 23.5 , 37.0 , 38.0 , 38.0 , 1.0375 ,
2009-11-18 05:05:17 , 157.0 , 300.0 , 41.0 , 50 , 0 , 3486 , 41.0 , 47.5 , 42.0 , 22.6 , 37.0 , 38.0 , 38.0 , 1.6500 ,
2009-11-18 05:05:18 , 157.0 , 300.0 , 42.0 , 50 , 0 , 3486 , 41.5 , 47.0 , 42.0 , 22.6 , 37.0 , 38.0 , 39.0 , 1.6500 ,
2009-11-18 05:05:19 , 157.0 , 300.0 , 42.0 , 50 , 7 , 3487 , 42.0 , 47.5 , 42.0 , 22.6 , 37.0 , 38.0 , 39.0 , 1.6500 ,
2009-11-18 05:05:20 , 157.0 , 300.0 , 42.0 , 50 , 0 , 3484 , 41.5 , 47.5 , 42.0 , 22.6 , 37.0 , 38.0 , 39.0 , 1.6500 ,
2009-11-18 05:05:21 , 157.0 , 300.0 , 41.0 , 50 , 2 , 3488 , 41.5 , 47.5 , 42.0 , 22.6 , 37.0 , 38.0 , 39.0 , 1.6500 ,
2009-11-18 05:05:22 , 157.0 , 300.0 , 41.0 , 50 , 12 , 3488 , 42.0 , 47.5 , 42.0 , 23.5 , 37.0 , 38.0 , 39.0 , 1.6500 ,
2009-11-18 05:05:23 , 157.0 , 300.0 , 41.0 , 50 , 8 , 3487 , 42.0 , 47.5 , 42.5 , 22.6 , 37.0 , 38.0 , 39.0 , 1.6500 ,
2009-11-18 05:05:24 , 157.0 , 300.0 , 42.0 , 50 , 5 , 3488 , 42.0 , 47.5 , 42.0 , 22.6 , 37.0 , 38.0 , 39.0 , 1.6500 ,
2009-11-18 05:05:25 , 157.0 , 300.0 , 42.0 , 50 , 4 , 3487 , 42.0 , 48.0 , 42.5 , 22.6 , 37.0 , 38.0 , 39.0 , 1.6500 ,
2009-11-18 05:05:26 , 157.0 , 300.0 , 41.0 , 50 , 12 , 3485 , 41.5 , 48.0 , 42.5 , 23.5 , 37.0 , 38.0 , 39.0 , 1.0375 ,
2009-11-18 05:05:27 , 157.0 , 300.0 , 41.0 , 50 , 0 , 3487 , 42.0 , 48.0 , 42.0 , 22.6 , 37.0 , 38.0 , 39.0 , 1.6500 ,
2009-11-18 05:05:28 , 157.0 , 300.0 , 42.0 , 50 , 0 , 3486 , 41.5 , 47.5 , 42.5 , 22.6 , 37.0 , 38.0 , 39.0 , 1.6500 ,
2009-11-18 05:05:29 , 157.0 , 300.0 , 41.0 , 50 , 0 , 3489 , 42.0 , 48.0 , 42.5 , 22.6 , 37.0 , 38.0 , 39.0 , 1.6500 ,
2009-11-18 05:05:30 , 157.0 , 300.0 , 42.0 , 50 , 4 , 3489 , 42.5 , 47.5 , 42.5 , 22.6 , 37.0 , 38.0 , 39.0 , 1.6500 ,
2009-11-18 05:05:31 , 157.0 , 300.0 , 42.0 , 50 , 0 , 3487 , 42.0 , 48.5 , 42.0 , 22.6 , 37.0 , 38.0 , 39.0 , 1.6500 ,
2009-11-18 05:05:32 , 157.0 , 300.0 , 42.0 , 50 , 0 , 3488 , 42.0 , 48.0 , 42.5 , 22.6 , 37.0 , 38.0 , 39.0 , 1.6500 ,
2009-11-18 05:05:33 , 157.0 , 300.0 , 42.0 , 50 , 0 , 3488 , 42.0 , 48.0 , 42.5 , 22.6 , 37.0 , 38.0 , 39.0 , 1.6500 ,
2009-11-18 05:05:34 , 157.0 , 300.0 , 42.0 , 50 , 0 , 3487 , 42.0 , 48.5 , 42.5 , 22.6 , 37.0 , 38.0 , 39.0 , 1.6500 ,
2009-11-18 05:05:35 , 157.0 , 300.0 , 42.0 , 50 , 7 , 3488 , 42.0 , 48.5 , 42.5 , 22.6 , 37.0 , 38.0 , 39.0 , 1.6500 ,
2009-11-18 05:05:36 , 157.0 , 300.0 , 42.0 , 50 , 0 , 3486 , 42.0 , 47.5 , 42.5 , 22.6 , 37.0 , 38.0 , 39.0 , 1.6500 ,
2009-11-18 05:05:37 , 157.0 , 300.0 , 42.0 , 50 , 4 , 3487 , 42.5 , 48.0 , 42.5 , 22.6 , 37.0 , 38.0 , 39.0 , 1.6500 ,
2009-11-18 05:05:38 , 157.0 , 300.0 , 42.0 , 50 , 0 , 3488 , 42.5 , 48.0 , 43.0 , 22.6 , 37.0 , 38.0 , 39.0 , 1.6500 ,
2009-11-18 05:05:39 , 157.0 , 300.0 , 42.0 , 50 , 23 , 3488 , 42.5 , 47.5 , 43.0 , 22.6 , 37.0 , 38.0 , 39.0 , 1.0375 ,
2009-11-18 05:05:40 , 157.0 , 300.0 , 42.0 , 50 , 0 , 3489 , 42.0 , 48.5 , 42.0 , 22.6 , 37.0 , 38.0 , 39.0 , 1.6500 ,
2009-11-18 05:05:41 , 157.0 , 300.0 , 42.0 , 50 , 0 , 3491 , 42.0 , 48.0 , 42.5 , 13.9 , 37.0 , 38.0 , 38.0 , 1.0375 ,
2009-11-18 05:05:42 , 550.0 , 900.0 , 42.0 , 50 , 0 , 3483 , 42.5 , 47.5 , 42.5 , 25.3 , 37.0 , 38.0 , 39.0 , 1.0375 ,
2009-11-18 05:05:43 , 157.0 , 300.0 , 42.0 , 50 , 25 , 3489 , 42.5 , 48.5 , 42.5 , 24.4 , 37.0 , 38.0 , 39.0 , 1.0375 ,
2009-11-18 05:05:44 , 157.0 , 300.0 , 42.0 , 50 , 0 , 3490 , 42.5 , 48.5 , 42.5 , 22.6 , 37.0 , 38.0 , 39.0 , 1.6500 ,
2009-11-18 05:05:45 , 157.0 , 300.0 , 42.0 , 50 , 0 , 3488 , 42.5 , 48.0 , 42.5 , 22.6 , 37.0 , 38.0 , 39.0 , 1.6500 ,
2009-11-18 05:05:46 , 157.0 , 300.0 , 42.0 , 50 , 0 , 3485 , 42.5 , 48.0 , 42.5 , 22.6 , 37.0 , 38.0 , 39.0 , 1.6500 ,
2009-11-18 05:05:47 , 157.0 , 300.0 , 42.0 , 50 , 6 , 3492 , 42.0 , 48.0 , 42.5 , 12.2 , 37.0 , 38.0 , 39.0 , 1.6500 ,
2009-11-18 05:05:48 , 157.0 , 300.0 , 42.0 , 50 , 4 , 3489 , 42.5 , 48.5 , 43.0 , 22.6 , 37.0 , 38.0 , 39.0 , 1.6500 ,
2009-11-18 05:05:49 , 550.0 , 900.0 , 42.0 , 50 , 32 , 3484 , 42.5 , 48.0 , 42.0 , 23.5 , 37.0 , 38.0 , 39.0 , 1.0375 ,
2009-11-18 05:05:50 , 157.0 , 300.0 , 42.0 , 50 , 0 , 3485 , 42.0 , 48.0 , 42.5 , 22.6 , 37.0 , 38.0 , 39.0 , 1.6500 ,
2009-11-18 05:05:51 , 157.0 , 300.0 , 42.0 , 50 , 2 , 3489 , 42.5 , 48.5 , 42.5 , 22.6 , 37.0 , 38.0 , 39.0 , 1.0375 ,
2009-11-18 05:05:52 , 157.0 , 300.0 , 42.0 , 50 , 0 , 3487 , 42.5 , 48.5 , 43.0 , 22.6 , 37.0 , 38.0 , 37.0 , 1.0375 ,
2009-11-18 05:05:53 , 157.0 , 300.0 , 42.0 , 50 , 22 , 3493 , 42.5 , 48.5 , 42.5 , 8.7 , 37.0 , 38.0 , 39.0 , 1.0875 ,
2009-11-18 05:05:54 , 725.0 , 1000.0 , 42.0 , 50 , 0 , 3486 , 42.5 , 48.5 , 43.5 , 12.2 , 37.0 , 38.0 , 38.0 , 1.0875 ,
2009-11-18 05:05:56 , 725.0 , 1000.0 , 42.0 , 50 , 0 , 3483 , 42.0 , 48.5 , 43.0 , 12.2 , 37.0 , 37.0 , 37.0 , 1.0875 ,
2009-11-18 05:05:57 , 725.0 , 1000.0 , 42.0 , 50 , 0 , 3484 , 42.0 , 48.5 , 43.0 , 12.2 , 37.0 , 37.0 , 37.0 , 1.0875 ,
2009-11-18 05:05:58 , 725.0 , 1000.0 , 42.0 , 50 , 0 , 3484 , 42.5 , 48.5 , 43.5 , 12.2 , 36.0 , 37.0 , 37.0 , 1.0875 ,
2009-11-18 05:05:59 , 725.0 , 1000.0 , 42.0 , 50 , 0 , 3483 , 42.5 , 48.0 , 43.0 , 12.2 , 36.0 , 37.0 , 37.0 , 1.0875 ,
2009-11-18 05:06:00 , 157.0 , 300.0 , 42.0 , 50 , 0 , 3483 , 41.5 , 47.5 , 42.5 , 22.6 , 37.0 , 38.0 , 38.0 , 1.6500 ,
2009-11-18 05:06:01 , 157.0 , 300.0 , 42.0 , 50 , 0 , 3488 , 42.0 , 48.0 , 42.5 , 22.6 , 37.0 , 38.0 , 39.0 , 1.6500 ,
2009-11-18 05:06:02 , 550.0 , 900.0 , 42.0 , 50 , 0 , 3490 , 42.5 , 47.5 , 42.5 , 20.9 , 37.0 , 38.0 , 38.0 , 1.0375 ,
2009-11-18 05:06:03 , 157.0 , 300.0 , 42.0 , 50 , 0 , 3487 , 42.5 , 48.0 , 42.5 , 22.6 , 37.0 , 38.0 , 39.0 , 1.6500 ,
2009-11-18 05:06:04 , 550.0 , 300.0 , 42.0 , 50 , 1 , 3489 , 42.0 , 48.0 , 42.0 , 14.8 , 37.0 , 38.0 , 39.0 , 1.6500 ,
2009-11-18 05:06:05 , 157.0 , 300.0 , 42.0 , 50 , 1 , 3489 , 42.0 , 47.5 , 43.0 , 22.6 , 37.0 , 38.0 , 39.0 , 1.6500 ,
2009-11-18 05:06:06 , 157.0 , 300.0 , 41.0 , 50 , 18 , 3488 , 42.0 , 48.5 , 43.0 , 23.5 , 37.0 , 38.0 , 39.0 , 1.0375 ,
2009-11-18 05:06:07 , 157.0 , 300.0 , 42.0 , 50 , 0 , 3486 , 42.5 , 48.0 , 42.5 , 22.6 , 37.0 , 38.0 , 39.0 , 1.6500 ,
2009-11-18 05:06:08 , 157.0 , 300.0 , 42.0 , 50 , 0 , 3489 , 42.5 , 48.0 , 42.5 , 22.6 , 37.0 , 38.0 , 40.0 , 1.6500 ,
2009-11-18 05:06:09 , 157.0 , 300.0 , 42.0 , 50 , 0 , 3486 , 42.5 , 48.0 , 42.5 , 22.6 , 37.0 , 38.0 , 40.0 , 1.6500 ,
2009-11-18 05:06:10 , 157.0 , 300.0 , 42.0 , 50 , 0 , 3491 , 42.5 , 48.5 , 43.5 , 8.7 , 37.0 , 38.0 , 39.0 , 1.0375 ,
2009-11-18 05:06:11 , 157.0 , 300.0 , 42.0 , 50 , 18 , 3487 , 42.5 , 48.5 , 42.5 , 23.5 , 37.0 , 38.0 , 39.0 , 1.0375 ,
2009-11-18 05:06:12 , 157.0 , 300.0 , 42.0 , 50 , 0 , 3489 , 42.5 , 48.5 , 43.0 , 22.6 , 37.0 , 38.0 , 39.0 , 1.6500 ,
2009-11-18 05:06:13 , 157.0 , 300.0 , 42.0 , 50 , 0 , 3490 , 42.0 , 48.0 , 42.5 , 22.6 , 37.0 , 38.0 , 39.0 , 1.6500 ,
2009-11-18 05:06:14 , 157.0 , 300.0 , 42.0 , 50 , 0 , 3487 , 42.0 , 48.0 , 43.0 , 22.6 , 37.0 , 38.0 , 40.0 , 1.6500 ,
2009-11-18 05:06:15 , 157.0 , 300.0 , 42.0 , 50 , 0 , 3489 , 42.5 , 48.5 , 43.5 , 22.6 , 37.0 , 38.0 , 40.0 , 1.6500 ,
2009-11-18 05:06:16 , 157.0 , 300.0 , 42.0 , 50 , 0 , 3489 , 42.5 , 48.5 , 42.5 , 22.6 , 37.0 , 38.0 , 39.0 , 1.6500 ,
2009-11-18 05:06:17 , 157.0 , 300.0 , 42.0 , 50 , 0 , 3488 , 42.5 , 48.5 , 42.5 , 22.6 , 37.0 , 38.0 , 40.0 , 1.6500 ,
2009-11-18 05:06:18 , 157.0 , 300.0 , 42.0 , 50 , 0 , 3488 , 42.5 , 48.5 , 42.5 , 22.6 , 37.0 , 38.0 , 40.0 , 1.6500 ,
2009-11-18 05:06:19 , 157.0 , 300.0 , 42.0 , 50 , 0 , 3486 , 42.5 , 48.5 , 42.5 , 22.6 , 37.0 , 38.0 , 40.0 , 1.6500 ,
2009-11-18 05:06:20 , 157.0 , 300.0 , 42.0 , 50 , 0 , 3488 , 42.5 , 48.5 , 42.5 , 22.6 , 37.0 , 38.0 , 40.0 , 1.6500 ,
2009-11-18 05:06:21 , 157.0 , 300.0 , 42.0 , 50 , 0 , 3487 , 42.5 , 48.5 , 42.5 , 22.6 , 37.0 , 39.0 , 40.0 , 1.6500 ,
2009-11-18 05:06:22 , 157.0 , 300.0 , 43.0 , 50 , 0 , 3487 , 42.5 , 48.5 , 43.0 , 22.6 , 37.0 , 38.0 , 40.0 , 1.6500 ,
2009-11-18 05:06:23 , 157.0 , 300.0 , 42.0 , 50 , 0 , 3487 , 43.0 , 48.5 , 43.0 , 22.6 , 37.0 , 39.0 , 40.0 , 1.6500 ,
2009-11-18 05:06:24 , 157.0 , 300.0 , 42.0 , 50 , 0 , 3488 , 42.5 , 49.0 , 43.0 , 22.6 , 37.0 , 39.0 , 40.0 , 1.6500 ,
2009-11-18 05:06:25 , 157.0 , 300.0 , 42.0 , 50 , 0 , 3487 , 42.5 , 49.0 , 43.0 , 22.6 , 37.0 , 38.0 , 40.0 , 1.6500 ,
2009-11-18 05:06:26 , 157.0 , 300.0 , 43.0 , 50 , 0 , 3487 , 42.5 , 48.5 , 43.0 , 22.6 , 37.0 , 39.0 , 40.0 , 1.6500 ,
2009-11-18 05:06:27 , 157.0 , 300.0 , 42.0 , 50 , 0 , 3488 , 42.5 , 48.5 , 43.5 , 22.6 , 37.0 , 39.0 , 40.0 , 1.6500 ,
2009-11-18 05:06:28 , 157.0 , 300.0 , 42.0 , 50 , 0 , 3489 , 43.0 , 49.0 , 43.5 , 22.6 , 37.0 , 39.0 , 40.0 , 1.6500 ,
2009-11-18 05:06:29 , 157.0 , 300.0 , 43.0 , 50 , 0 , 3486 , 43.0 , 49.5 , 43.0 , 23.5 , 37.0 , 39.0 , 40.0 , 1.6500 ,
2009-11-18 05:06:30 , 157.0 , 300.0 , 42.0 , 50 , 4 , 3489 , 42.5 , 48.5 , 43.0 , 23.5 , 37.0 , 39.0 , 40.0 , 1.6500 ,
2009-11-18 05:06:31 , 157.0 , 300.0 , 43.0 , 50 , 1 , 3487 , 42.5 , 48.5 , 43.0 , 23.5 , 37.0 , 39.0 , 40.0 , 1.6500 ,
2009-11-18 05:06:32 , 157.0 , 300.0 , 43.0 , 50 , 0 , 3486 , 43.0 , 49.0 , 43.0 , 23.5 , 37.0 , 39.0 , 40.0 , 1.0375 ,
2009-11-18 05:06:33 , 157.0 , 300.0 , 42.0 , 50 , 0 , 3490 , 43.0 , 48.5 , 43.5 , 23.5 , 37.0 , 37.0 , 40.0 , 1.0375 ,
2009-11-18 05:06:34 , 157.0 , 300.0 , 43.0 , 50 , 0 , 3486 , 42.5 , 49.0 , 43.5 , 22.6 , 38.0 , 39.0 , 40.0 , - ,
2009-11-18 05:06:37 , 725.0 , 1000.0 , 42.0 , 50 , 0 , 3484 , 42.5 , 48.5 , 43.5 , 13.1 , 37.0 , 38.0 , 38.0 , 1.0875 ,
Quote:
I made a new thread, due to the nature of this one. My other thread is this:
Quote:
http://forums.extremeoverclocking.co...70275&posted=1

I have been working on this for a few hours, to see WHY my 5850 all of a sudden gets juiced with 1.6 volts, and holds, untill reboot....

I left GPU-Z open, doing nothing but watching the screen refresh, and within 5 min, the voltage gets bumped, and temps sky-rocket up! Even shuts down the computer after a few min of it being like that. (Everything in the case is on still, so maybe just shuts down the GPU?)

I have uninstalled and cleaned every benchmark and ATI "edit" tool i had. STILL, same thing.

Even did a reinstall of my OS on a different HDD, install all drivers, open gpu-z..BAM!!!

I tried 9.10 WHQL and 9.11 WHQL, AND stock Windows 7 drivers, still same issue.

Now, with JUST MSI AB running, and the voltage monitoring system on, i can watch it forever, NO jumps.

I leave MSI AB open, open up GPU-Z, and within less then a min., voltage jump!! Both programs will read the jump, and temp increases?!?!

I have ran furmark, Vantage, Crysis, and OCCT with JUST MSI AB open, NO voltage increase or high temps. Open up GPU-z, 1.6 happends, temps go nuts, amperage goes up to like 20 something idle, (when its like 2.5 normal). Temps will show an increase big time in Everest, also, when it gets jumped to 1.6.

Everything i have done, leads to GPU-Z 0.3.6 doing something. I know im going to get "gpu-z just reads, not writes"...but you explain it then. I HAVE taken the bios from the card with GPU-Z, but have not flashed anything.

So, even on a fresh install...you explain why this happends only with GPU-Z is left open...?!



My System SpecsSystem Spec
.
19 Nov 2009   #2
thefabe

Windows 7 ultimate 64 bit / XP Home sp3
 
 

If your still within the Newegg return policy I would use it. As for Diamon I have no idea. When it comes to grahic cards I tend to stick woth XFX, Evga, or BFG as their RMA's,warranties and customer support are exceptional. IMO XFX does have a 5850 on the egg http://www.newegg.com/Product/Produc...82E16814150442
My System SpecsSystem Spec
19 Nov 2009   #3
ussj4brolli

Windows 7 PRO x64
 
 

Quote   Quote: Originally Posted by thefabe View Post
If your still within the Newegg return policy I would use it. As for Diamon I have no idea. When it comes to grahic cards I tend to stick woth XFX, Evga, or BFG as their RMA's,warranties and customer support are exceptional. IMO
No need to RMA the card. Running fine, read the last quote. It only goes to 1.6 ONLY when gpu-z is turned on.

Been sitting here surfing, then play a game, surf, ect w/ just msi AB on, and no high voltage. stick on gpu-z, and within a min or 2, 1.6, insane amperage, and temps..

unless the 1.6 broke something, no need to rma, found the issue. as to why that is the issue, is beyond me. i had everest running in the background for my CPU temps, but thats always on 24/7.

Im past my egg warrenty anyways. i did, however reg the card on diamond for an extra year warrenty, just incase
My System SpecsSystem Spec
.

19 Nov 2009   #4
thefabe

Windows 7 ultimate 64 bit / XP Home sp3
 
 

Must be a problem with Gpu-z then Glad to her it's Ok
My System SpecsSystem Spec
19 Nov 2009   #5
ussj4brolli

Windows 7 PRO x64
 
 

Quote   Quote: Originally Posted by thefabe View Post
Must be a problem with Gpu-z then Glad to her it's Ok
Suprized not to hear the "gpu-z reads, not writes" thing, yet. lol

I wanted to give everyone a heads up, and see if anyone else has any kind of issue like this. i found the spikes on 2 other forums from other users, all using gpu-z
My System SpecsSystem Spec
19 Nov 2009   #6
thefabe

Windows 7 ultimate 64 bit / XP Home sp3
 
 

Figured you would have alread known or heard that. Fabe
My System SpecsSystem Spec
19 Nov 2009   #7
ussj4brolli

Windows 7 PRO x64
 
 

Quote   Quote: Originally Posted by thefabe View Post
Figured you would have alread known or heard that. Fabe
That...whats that? lol. That gpu-z is just soposed to read things, not write info to card. I knew that..but it doesnt explain it doing what its doing. IDK why it does this, but i know it does. No more gpu-z for me for a while. and hopefully no voltage regulators died
My System SpecsSystem Spec
19 Nov 2009   #8
Airbot

Windows 7 Ultimate x64 SP1
 
 

My System SpecsSystem Spec
Reply

 MSI AB 1.4, GPU-Z & 5850, Voltage to 1.6. GPU-Z causing




Thread Tools




Similar help and support threads
Thread Forum
ati 5850 vs. GTX580
I have just made this switch and realizing there isn't much solid information one can grab on google concerning this particular switch. ...yes there is a big difference. Especially in the way of anti-aliasing where as on the 5850 AA means a massive hit to frame rate, with the gtx580 it doesn't...
Graphic Cards
ATI 5850 11.2 drivers
So i have fully updated drivers from ATI for my ATI HiS HD5850 gpu drivers are 11.2(newest for windows 7) and it seems when i start/stop videos, or while watching live broadcasting on JTV, xfire, ustream, ngametv you name it there will be a flicker across my two monitors, one running...
Graphic Cards
Hd 6850 vs hd 5850
why is the hd 6850 a lot cheaper than the hd 5850 series video cards? even now, the new series are cheaper than the 5850 series. does anyone know, in layman's terms, what makes the new card cheaper than the previous? i don't wanna sound ungrateful, but it kinda throws me off. got me...
Hardware & Devices
CPU Voltage & CPU VDDA Voltage
Hey guys. I am sort of confused as to why my BIOS has "CPU VDDA Voltage" and not "CPU Voltage". My BIOS version is 1102 (latest). Any help?
PC Custom Builds and Overclocking
Asus 5850
Today finally waiting for ASUS 5850 :p
Graphic Cards
No HD playback on 5850?!?!
Anyone else having issues playing a 1080P video on there computer with the 5xxx cards? My 5850 will not play them. Tested alot of 1080P videos that i have on the system. Other movies are fine. Games - fine. Setting the TV to a different resolution - No fix I can click on a time frame...
Graphic Cards


Our Sites

Site Links

About Us

Find Us

Windows 7 Forums is an independent web site and has not been authorized, sponsored, or otherwise approved by Microsoft Corporation. "Windows 7" and related materials are trademarks of Microsoft Corp.

Designer Media Ltd

All times are GMT -5. The time now is 13:17.
Twitter Facebook Google+ Seven Forums iOS App Seven Forums Android App